Location: Miles
(41.4492°N, 81.6087°W)
Time: 01:45:31
(UTC+00:00)

Courier 1B - Pass Details

Date: 17 September 2024
Orbit: 962 x 1208 km, 28.3° (Epoch: 12 October)

Event Time Altitude Azimuth Distance (km) Brightness Sun altitude
Rises 22:18:05 0° 257° (WSW) 3,958 12.8 12.9°
Reaches altitude 10° 22:21:25 10° 244° (WSW) 3,037 11.9 12.2°
Maximum altitude 22:27:09 24° 194° (SSW) 2,230 9.8 11.2°
Drops below altitude 10° 22:33:02 10° 145° (SE) 3,125 9.9 10.1°
Sets 22:36:32 0° 132° (SE) 4,099 10.4 9.4°
